Location: Orange Harbor Mobile Home Park
(26.6923°N, 81.7937°W)
Time: 08:26:49
(UTC+00:00)

Cosmos 1464 Rocket - Pass Details

Date: 19 September 2020
Orbit: 953 x 1000 km, 82.9° (Epoch: 29 October)

Event Time Altitude Azimuth Distance (km) Brightness Sun altitude
Rises 00:50:01 0° 186° (S) 3,616 6.9 -19.1°
Reaches altitude 10° 00:52:30 10° 187° (S) 2,671 6.2 -19.7°
Maximum altitude 00:58:36 82° 275° (W) 965 4.0 -21.0°
Drops below altitude 10° 01:04:45 10° 3° (N) 2,687 6.4 -22.3°
Sets 01:07:15 0° 4° (N) 3,640 7.1 -22.9°
